World > North America > United States > Mississippi > Mitchell  

Mitchell, MS Hourly Weather Updates

Feedback E-mail the Weather

Quick Clicks

Mitchell, MS Weather Maps

°F °C°F °C
Mitchell Weather Map
UTC Time: 4/23/2024, 17:33
Your Time:

Mitchell, MS Regional Weather

Expires:202404231800;;247374
ASUS44 KJAN 231710
RWRMS 

MISSISSIPPI HOURLY WEATHER ROUNDUP
NATIONAL WEATHER SERVICE JACKSON MS
1200 PM CDT TUE APR 23 2024

NOTE: "FAIR: INDICATES FEW OR NO CLOUDS BELOW 12,000 FEET WITH NO
SIGNIFICANT WEATHER AND/OR OBSTRUCTIONS TO VISIBILITY.


MSZ003>006-009-014>017-022>024-029>033-037>039-231800-
NORTHEAST MISSISSIPPI
  
CITY           SKY/WX    TMP DP  RH WIND       PRES   REMARKS
ABERDEEN       SUNNY     70  41  35 SW10G20   30.18F                  
COLUMBUS AFB   SUNNY     71  38  30 SW8G17    30.15F                  
CORINTH        SUNNY     68  41  37 S12G23    30.13F                  
GOLDN TRIANGLE SUNNY     68  43  40 S10G16    30.19                   
IUKA             N/A     67  38  34 S8        30.15F                  
LOUISVILLE     SUNNY     68  45  42 S15       30.21S                  
STARKVILLE     SUNNY     68  41  37 VRB5G14   30.16F                  
TUPELO         SUNNY     70  41  34 S15       30.16F                  
$$


SKY/WX - Weather  TMP - Temperature  DP - Dew Point  RH - Humidity
WIND - Wind Direction/Speed PRES - Barometric Pressure VSB - Visibility
WCI - Wind Chill Index E13G22 Wind - East Wind 13 mph/Gusts of 22 mph

Trending Headlines

Trending Entertainment Headlines

Mitchell Radar Loop

Use the map search tool if you want to place a location marker on the radar map...

Mitchell Quick Facts

National Two Day Weather Forecast


E-mail the Mitchell Weather Forecast

Voice your opinion or tell us about page issues...